カタログに戻る

SL-16 R/B

運用中LEO
NORAD 22220·ROCKET BODY·🇷🇺 Russia

打ち上げ Nov 17, 1992 から Baikonur Cosmodrome

Loading…

次のパス (今後24時間)

TLE

最新Source: Space-Track

元期: Sep 14, 2026, 10:19 UTC

1 22220U 92076B   26257.43000959  .00000159  00000-0  10315-3 0  9992
2 22220  71.0001 150.7890 0012505 177.1891 356.0778 14.16880143748568

AllMySatでSL-16 R/Bをリアルタイム追跡

Download on the App Store